| time (UTC) | temp F | wind direction | speed MPH | gust MPH | rain 1hr in | rain 24hr in | rain mn in | humidity % | barometer mb |
| 20260507071517 | 52 | 46 | 5.0 | 11.0 | 0.00 | 0.00 | 0.00 | 80 | 1019.6 |
| 20260507070014 | 52 | 44 | 5.0 | 9.0 | 0.00 | 0.00 | 0.00 | 80 | 1019.2 |
| 20260507064510 | 52 | 40 | 3.0 | 5.0 | 0.00 | 0.00 | 0.00 | 78 | 1019.1 |
| 20260507063007 | 53 | 35 | 1.0 | 3.0 | 0.00 | 0.00 | 0.00 | 76 | 1018.9 |
| 20260507061503 | 53 | 38 | 2.0 | 7.0 | 0.00 | 0.00 | 0.00 | 76 | 1018.5 |
| 20260507060002 | 54 | 40 | 2.0 | 6.0 | 0.00 | 0.00 | 0.00 | 75 | 1018.5 |
| 20260507054556 | 54 | 58 | 1.0 | 5.0 | 0.00 | 0.00 | 0.00 | 73 | 1018.1 |
| 20260507053054 | 55 | 34 | 2.0 | 7.0 | 0.00 | 0.00 | 0.00 | 72 | 1017.8 |
| 20260507051551 | 55 | 65 | 3.0 | 6.0 | 0.00 | 0.00 | 0.00 | 71 | 1017.7 |
| 20260507050050 | 56 | 44 | 2.0 | 6.0 | 0.00 | 0.00 | 0.00 | 70 | 1017.5 |
| 20260507044547 | 56 | 50 | 3.0 | 6.0 | 0.00 | 0.00 | 0.00 | 69 | 1017.4 |
| 20260507043048 | 57 | 46 | 2.0 | 10.0 | 0.00 | 0.00 | 0.00 | 68 | 1017.4 |
| 20260507041547 | 57 | 46 | 4.0 | 11.0 | 0.00 | 0.00 | 0.00 | 67 | 1017.0 |
| 20260507040042 | 58 | 52 | 5.0 | 10.0 | 0.00 | 0.00 | 0.00 | 66 | 1017.1 |
| 20260507034551 | 58 | 66 | 4.0 | 11.0 | 0.00 | 0.00 | 0.00 | 65 | 1016.9 |
| 20260507033057 | 59 | 65 | 4.0 | 10.0 | 0.00 | 0.00 | 0.00 | 64 | 1016.7 |
| 20260507031538 | 59 | 66 | 6.0 | 11.0 | 0.00 | 0.00 | 0.00 | 63 | 1016.5 |
| 20260507030036 | 60 | 67 | 4.0 | 13.0 | 0.00 | 0.00 | 0.00 | 61 | 1016.3 |
| 20260507024536 | 61 | 55 | 3.0 | 11.0 | 0.00 | 0.00 | 0.00 | 59 | 1016.2 |
| 20260507023031 | 61 | 56 | 3.0 | 10.0 | 0.00 | 0.00 | 0.00 | 58 | 1015.7 |
| 20260507021530 | 62 | 51 | 4.0 | 13.0 | 0.00 | 0.00 | 0.00 | 56 | 1015.5 |
| 20260507020032 | 63 | 68 | 5.0 | 10.0 | 0.00 | 0.00 | 0.00 | 55 | 1015.2 |
| 20260507014528 | 64 | 67 | 5.0 | 11.0 | 0.00 | 0.00 | 0.00 | 53 | 1015.1 |
| 20260507013027 | 64 | 85 | 5.0 | 11.0 | 0.00 | 0.00 | 0.00 | 51 | 1014.8 |
| 20260507011527 | 65 | 77 | 8.0 | 14.0 | 0.00 | 0.00 | 0.00 | 50 | 1014.8 |
| 20260507010033 | 66 | 68 | 7.0 | 14.0 | 0.00 | 0.00 | 0.00 | 49 | 1014.5 |
| 20260507004525 | 68 | 73 | 6.0 | 13.0 | 0.00 | 0.00 | 0.00 | 48 | 1014.2 |
| 20260507003024 | 68 | 50 | 6.0 | 15.0 | 0.00 | 0.00 | 0.00 | 47 | 1014.1 |
| 20260507001529 | 69 | 49 | 6.0 | 13.0 | 0.00 | 0.00 | 0.00 | 46 | 1014.0 |
| 20260507000028 | 69 | 79 | 6.0 | 11.0 | 0.00 | 0.00 | 0.00 | 47 | 1014.0 |
| 20260506234541 | 68 | 68 | 6.0 | 13.0 | 0.00 | 0.00 | 0.00 | 47 | 1013.9 |
| 20260506233023 | 70 | 74 | 6.0 | 14.0 | 0.00 | 0.00 | 0.00 | 45 | 1013.9 |
| 20260506231522 | 69 | 40 | 4.0 | 13.0 | 0.00 | 0.00 | 0.00 | 45 | 1013.8 |
| 20260506230021 | 69 | 49 | 8.0 | 13.0 | 0.00 | 0.00 | 0.00 | 45 | 1013.7 |
| 20260506224527 | 70 | 9 | 7.0 | 15.0 | 0.00 | 0.00 | 0.00 | 45 | 1013.6 |
| 20260506223022 | 70 | 16 | 5.0 | 13.0 | 0.00 | 0.00 | 0.00 | 44 | 1013.6 |
| 20260506221519 | 70 | 51 | 4.0 | 10.0 | 0.00 | 0.00 | 0.00 | 44 | 1013.5 |
| 20260506220030 | 70 | 63 | 5.0 | 10.0 | 0.00 | 0.00 | 0.00 | 45 | 1013.3 |
| 20260506214514 | 69 | 217 | 7.0 | 12.0 | 0.00 | 0.00 | 0.00 | 46 | 1013.6 |
| 20260506213012 | 68 | 47 | 3.0 | 13.0 | 0.00 | 0.00 | 0.00 | 48 | 1013.5 |
| 20260506211518 | 68 | 31 | 6.0 | 13.0 | 0.00 | 0.00 | 0.00 | 49 | 1013.6 |
| 20260506210009 | 67 | 30 | 4.0 | 12.0 | 0.00 | 0.00 | 0.00 | 49 | 1013.8 |
| 20260506204504 | 65 | 68 | 4.0 | 12.0 | 0.00 | 0.00 | 0.00 | 51 | 1014.0 |
| 20260506203103 | 64 | 38 | 3.0 | 11.0 | 0.00 | 0.00 | 0.00 | 54 | 1014.0 |
| 20260506201556 | 63 | 48 | 3.0 | 10.0 | 0.00 | 0.00 | 0.00 | 56 | 1014.3 |
| 20260506200054 | 62 | 37 | 5.0 | 11.0 | 0.00 | 0.00 | 0.00 | 56 | 1014.2 |
| 20260506194553 | 61 | 51 | 4.0 | 9.0 | 0.00 | 0.00 | 0.00 | 59 | 1014.3 |
| 20260506193052 | 60 | 5 | 3.0 | 9.0 | 0.00 | 0.00 | 0.00 | 60 | 1014.3 |
| 20260506191545 | 59 | 40 | 2.0 | 10.0 | 0.00 | 0.00 | 0.00 | 62 | 1014.5 |
| 20260506190044 | 59 | 62 | 2.0 | 11.0 | 0.00 | 0.00 | 0.00 | 63 | 1014.5 |
| 20260506184543 | 58 | 70 | 2.0 | 10.0 | 0.00 | 0.00 | 0.00 | 64 | 1014.7 |
| 20260506183043 | 58 | 5 | 4.0 | 13.0 | 0.00 | 0.00 | 0.00 | 65 | 1014.7 |
| 20260506181558 | 58 | 32 | 4.0 | 10.0 | 0.00 | 0.00 | 0.00 | 66 | 1014.8 |
| 20260506180041 | 57 | 22 | 6.0 | 15.0 | 0.00 | 0.00 | 0.00 | 67 | 1014.9 |
| 20260506174539 | 57 | 41 | 6.0 | 13.0 | 0.00 | 0.00 | 0.00 | 67 | 1015.0 |
| 20260506173054 | 56 | 34 | 7.0 | 14.0 | 0.00 | 0.00 | 0.00 | 68 | 1015.2 |
| 20260506171544 | 56 | 26 | 7.0 | 13.0 | 0.00 | 0.00 | 0.00 | 69 | 1015.0 |
| 20260506170037 | 56 | 31 | 7.0 | 15.0 | 0.00 | 0.00 | 0.00 | 70 | 1014.9 |
| 20260506164537 | 55 | 46 | 4.0 | 14.0 | 0.00 | 0.00 | 0.00 | 73 | 1014.9 |
| 20260506163036 | 54 | 360 | 6.0 | 13.0 | 0.00 | 0.00 | 0.00 | 74 | 1014.9 |
| 20260506161533 | 54 | 38 | 8.0 | 14.0 | 0.00 | 0.00 | 0.00 | 75 | 1014.8 |
| 20260506160039 | 53 | 19 | 5.0 | 14.0 | 0.00 | 0.00 | 0.00 | 77 | 1014.6 |
| 20260506154532 | 52 | 17 | 4.0 | 16.0 | 0.00 | 0.00 | 0.00 | 78 | 1014.6 |
| 20260506153032 | 51 | 40 | 10.0 | 15.0 | 0.00 | 0.00 | 0.00 | 79 | 1014.6 |
| 20260506151532 | 50 | 38 | 8.0 | 15.0 | 0.00 | 0.00 | 0.00 | 81 | 1014.8 |
| 20260506150029 | 50 | 31 | 6.0 | 15.0 | 0.00 | 0.00 | 0.00 | 83 | 1014.8 |
| 20260506144526 | 50 | 17 | 7.0 | 16.0 | 0.00 | 0.00 | 0.00 | 82 | 1014.8 |
| 20260506143026 | 50 | 19 | 7.0 | 15.0 | 0.00 | 0.00 | 0.00 | 83 | 1014.5 |
| 20260506141522 | 50 | 26 | 8.0 | 13.0 | 0.00 | 0.00 | 0.00 | 82 | 1014.6 |
| 20260506140021 | 49 | 41 | 7.0 | 15.0 | 0.00 | 0.00 | 0.00 | 83 | 1014.4 |
| 20260506134523 | 49 | 17 | 6.0 | 14.0 | 0.00 | 0.00 | 0.00 | 83 | 1014.5 |
| 20260506133016 | 49 | 40 | 8.0 | 16.0 | 0.00 | 0.00 | 0.00 | 83 | 1014.0 |
| 20260506131535 | 49 | 45 | 6.0 | 16.0 | 0.00 | 0.00 | 0.00 | 82 | 1013.9 |
| 20260506130012 | 50 | 47 | 8.0 | 16.0 | 0.00 | 0.00 | 0.00 | 82 | 1013.7 |
| 20260506124506 | 49 | 24 | 8.0 | 16.0 | 0.00 | 0.00 | 0.00 | 82 | 1013.1 |
| 20260506123003 | 49 | 39 | 11.0 | 17.0 | 0.00 | 0.00 | 0.00 | 83 | 1012.3 |
| 20260506121602 | 49 | 17 | 7.0 | 18.0 | 0.00 | 0.00 | 0.00 | 83 | 1011.9 |
| 20260506120057 | 49 | 42 | 9.0 | 17.0 | 0.00 | 0.00 | 0.00 | 83 | 1011.5 |
| 20260506114553 | 50 | 32 | 6.0 | 16.0 | 0.00 | 0.00 | 0.00 | 81 | 1011.3 |
| 20260506113049 | 50 | 5 | 4.0 | 16.0 | 0.00 | 0.00 | 0.00 | 80 | 1011.3 |
| 20260506111546 | 50 | 21 | 5.0 | 17.0 | 0.00 | 0.00 | 0.00 | 81 | 1011.0 |
| 20260506110043 | 50 | 24 | 3.0 | 15.0 | 0.00 | 0.00 | 0.00 | 80 | 1010.9 |
| 20260506104546 | 51 | 26 | 6.0 | 14.0 | 0.00 | 0.00 | 0.00 | 79 | 1010.8 |
| 20260506103039 | 51 | 27 | 5.0 | 14.0 | 0.00 | 0.00 | 0.00 | 79 | 1010.9 |
| 20260506101533 | 51 | 29 | 5.0 | 12.0 | 0.00 | 0.00 | 0.00 | 78 | 1010.9 |
| 20260506100036 | 51 | 34 | 4.0 | 11.0 | 0.00 | 0.00 | 0.00 | 78 | 1010.5 |
| 20260506094534 | 52 | 23 | 5.0 | 9.0 | 0.00 | 0.00 | 0.00 | 80 | 1010.5 |
| 20260506093033 | 51 | 37 | 3.0 | 8.0 | 0.00 | 0.00 | 0.00 | 80 | 1010.2 |
| 20260506091526 | 51 | 50 | 4.0 | 11.0 | 0.00 | 0.00 | 0.00 | 79 | 1010.3 |
| 20260506090020 | 51 | 51 | 4.0 | 9.0 | 0.00 | 0.00 | 0.00 | 79 | 1010.4 |
| 20260506084517 | 52 | 42 | 5.0 | 11.0 | 0.00 | 0.00 | 0.00 | 79 | 1010.4 |
| 20260506083015 | 52 | 15 | 7.0 | 12.0 | 0.00 | 0.00 | 0.00 | 78 | 1009.8 |
| 20260506081511 | 52 | 38 | 4.0 | 11.0 | 0.00 | 0.00 | 0.00 | 77 | 1009.7 |
| 20260506073002 | 53 | 35 | 7.0 | 12.0 | 0.00 | 0.00 | 0.00 | 76 | 1009.7 |